KKYDRYRI2 Weather Reports


time (UTC)temp
C
wind
direction
speed
KPH
gust
KPH
rain 1hr
cm
rain 24hr
cm
rain mn
cm
humidity
%
barometer
mb
20260903010258 27 92 0.0 1.6 0.00 0.00 0.00 91 1016.3
20260903004119 27 92 0.0 1.6 0.00 0.00 0.00 90 1016.1
20260903003131 27 92 0.0 3.2 0.00 0.00 0.00 89 1016.1
20260903002130 28 92 0.0 3.2 0.00 0.00 0.00 88 1016.1
20260903001059 28 92 1.6 1.6 0.00 0.00 0.00 87 1016.2
20260903000105 28 92 0.0 1.6 0.00 0.00 0.00 85 1016.2
20260902235045 29 92 0.0 4.8 0.00 0.00 0.00 83 1016.1
20260902234011 30 92 0.0 4.8 0.00 0.00 0.00 80 1016.2
20260902233000 31 46 0.0 1.6 0.00 0.00 0.00 77 1016.2
20260902231925 32 46 0.0 1.6 0.00 0.00 0.00 72 1016.2
20260902230939 33 46 0.0 1.6 0.00 0.00 0.00 68 1016.3
20260902224802 35 46 0.0 3.2 0.00 0.00 0.00 61 1016.3
20260902221450 35 335 1.6 6.4 0.00 0.00 0.00 57 1016.4
20260902220445 35 15 0.0 6.4 0.00 0.00 0.00 57 1016.4
20260902215445 35 108 1.6 6.4 0.00 0.00 0.00 57 1016.6
20260902214457 35 32 0.0 4.8 0.00 0.00 0.00 57 1016.4
20260902213455 35 152 3.2 6.4 0.00 0.00 0.00 57 1016.6
20260902212421 35 130 1.6 6.4 0.00 0.00 0.00 58 1016.6
20260902211403 35 19 3.2 11.3 0.00 0.00 0.00 58 1016.6
20260902210421 35 355 1.6 11.3 0.00 0.00 0.00 57 1016.5
20260902205446 35 24 3.2 11.3 0.00 0.00 0.00 57 1016.7
20260902204501 35 108 3.2 9.7 0.00 0.00 0.00 57 1016.8
20260902203525 35 114 3.2 8.0 0.00 0.00 0.00 57 1016.8
20260902202455 35 157 1.6 11.3 0.00 0.00 0.00 57 1016.8
20260902201440 35 0 3.2 11.3 0.00 0.00 0.00 58 1016.9
20260902195243 35 42 1.6 9.7 0.00 0.00 0.00 59 1017.2
20260902194255 35 127 1.6 8.0 0.00 0.00 0.00 57 1017.4
20260902193235 35 49 3.2 16.1 0.00 0.00 0.00 58 1017.3
20260902191027 34 59 4.8 14.5 0.00 0.00 0.00 61 1017.6
20260902190032 34 17 3.2 12.9 0.00 0.00 0.00 60 1017.7
20260902185029 34 159 1.6 8.0 0.00 0.00 0.00 61 1017.8
20260902184052 34 50 3.2 9.7 0.00 0.00 0.00 61 1017.9
20260902183046 34 111 3.2 11.3 0.00 0.00 0.00 61 1018.0
20260902180941 34 131 1.6 12.9 0.00 0.00 0.00 60 1018.0
20260902175913 34 143 1.6 12.9 0.00 0.00 0.00 61 1018.0
20260902174843 33 109 3.2 12.9 0.00 0.00 0.00 62 1018.1
20260902173834 33 355 1.6 8.0 0.00 0.00 0.00 63 1018.2
20260902171656 33 351 1.6 12.9 0.00 0.00 0.00 63 1018.6
20260902170708 33 151 1.6 12.9 0.00 0.00 0.00 64 1018.6
20260902165715 33 51 1.6 12.9 0.00 0.00 0.00 65 1018.7
20260902164730 32 55 3.2 12.9 0.00 0.00 0.00 67 1018.8
20260902163702 32 347 1.6 11.3 0.00 0.00 0.00 67 1019.0
20260902162716 32 19 1.6 9.7 0.00 0.00 0.00 67 1019.1
20260902160534 32 40 1.6 11.3 0.00 0.00 0.00 71 1019.3
20260902155549 31 121 1.6 11.3 0.00 0.00 0.00 70 1019.3
20260902154536 31 23 1.6 9.7 0.00 0.00 0.00 72 1019.4
20260902152359 30 135 1.6 4.8 0.00 0.00 0.00 74 1019.2
20260902151338 30 148 0.0 6.4 0.00 0.00 0.00 75 1019.1
20260902150317 30 97 1.6 9.7 0.00 0.00 0.00 75 1019.3
20260902145252 30 92 1.6 9.7 0.00 0.00 0.00 76 1019.4
20260902144234 29 142 0.0 4.8 0.00 0.00 0.00 78 1019.4
20260902143253 29 46 1.6 4.8 0.00 0.00 0.00 79 1019.3
20260902141153 28 67 0.0 8.0 0.00 0.00 0.00 81 1019.2
20260902140157 28 51 1.6 8.0 0.00 0.00 0.00 83 1019.2
20260902135127 27 34 1.6 4.8 0.00 0.00 0.00 84 1019.3
20260902134152 27 80 0.0 4.8 0.00 0.00 0.00 86 1019.4
20260902133155 26 40 1.6 4.8 0.00 0.00 0.00 88 1019.4
20260902132203 26 44 0.0 4.8 0.00 0.00 0.00 90 1019.5
20260902131221 25 42 0.0 4.8 0.00 0.00 0.00 92 1019.4
20260902125057 23 44 0.0 1.6 0.00 0.00 0.00 99 1019.3
20260902122952 23 76 0.0 0.0 0.00 0.00 0.00 99 1019.0
20260902121940 22 76 0.0 0.0 0.00 0.00 0.00 99 1019.0
20260902120957 22 76 0.0 0.0 0.00 0.00 0.00 99 1019.0
20260902115933 22 76 0.0 0.0 0.00 0.00 0.00 99 1019.0
20260902113838 22 76 0.0 0.0 0.00 0.00 0.00 99 1018.9
20260902112809 22 76 0.0 0.0 0.00 0.00 0.00 99 1018.6
20260902111820 22 76 0.0 0.0 0.00 0.00 0.00 99 1018.6
20260902110817 22 76 0.0 0.0 0.00 0.00 0.00 99 1018.5
20260902105742 22 76 0.0 0.0 0.00 0.00 0.00 98 1018.3
20260902104712 22 76 0.0 0.0 0.00 0.00 0.00 98 1018.3
20260902103703 22 76 0.0 0.0 0.00 0.00 0.00 98 1018.4
20260902102712 22 76 0.0 0.0 0.00 0.00 0.00 98 1018.3
20260902101715 22 76 0.0 0.0 0.00 0.00 0.00 98 1018.2
20260902100731 22 76 0.0 0.0 0.00 0.00 0.00 98 1018.2
20260902095754 22 76 0.0 0.0 0.00 0.00 0.00 98 1018.2
20260902093604 22 76 0.0 0.0 0.00 0.00 0.00 98 1018.1
20260902092558 22 76 0.0 0.0 0.00 0.00 0.00 98 1018.2
20260902085219 22 76 0.0 0.0 0.00 0.00 0.00 98 1018.0
20260902083123 22 76 0.0 0.0 0.00 0.00 0.00 98 1017.7
20260902082059 22 76 0.0 0.0 0.00 0.00 0.00 98 1017.7
20260902081043 22 76 0.0 0.0 0.00 0.00 0.00 98 1017.6
20260902075039 22 76 0.0 0.0 0.00 0.00 0.00 98 1017.5
20260902074005 23 76 0.0 0.0 0.00 0.00 0.00 98 1017.6
20260902073023 23 76 0.0 0.0 0.00 0.00 0.00 98 1017.5
20260902072042 23 76 0.0 0.0 0.00 0.00 0.00 98 1017.5
20260902065922 23 76 0.0 0.0 0.00 0.00 0.00 98 1017.4
20260902064915 23 76 0.0 0.0 0.00 0.00 0.00 98 1017.5
20260902063912 23 76 0.0 0.0 0.00 0.00 0.00 98 1017.4
20260902062840 23 76 0.0 0.0 0.00 0.00 0.00 97 1017.5
20260902061807 23 76 0.0 0.0 0.00 0.00 0.00 97 1017.5
20260902060823 23 76 0.0 0.0 0.00 0.00 0.00 97 1017.7
20260902055812 23 76 0.0 0.0 0.00 0.00 0.00 97 1017.7
20260902054743 23 76 0.0 0.0 0.00 0.00 0.00 97 1017.7
20260902053756 23 76 0.0 0.0 0.00 0.00 0.00 97 1017.7
20260902052746 23 76 0.0 0.0 0.00 0.00 0.00 97 1017.6
20260902051727 23 76 0.0 0.0 0.00 0.00 0.00 97 1017.7
20260902050728 23 76 0.0 0.0 0.00 0.00 0.00 97 1017.8
20260902045747 23 76 0.0 0.0 0.00 0.00 0.00 97 1017.7
20260902043643 23 76 0.0 0.0 0.00 0.00 0.00 97 1017.6
20260902042659 23 76 0.0 0.0 0.00 0.00 0.00 96 1017.6
20260902041632 23 76 0.0 0.0 0.00 0.00 0.00 96 1017.6
20260902040641 24 76 0.0 0.0 0.00 0.00 0.00 96 1017.5
20260902035616 24 76 0.0 0.0 0.00 0.00 0.00 96 1017.6
20260902034636 24 76 0.0 0.0 0.00 0.00 0.00 96 1017.6
20260902033619 24 76 0.0 0.0 0.00 0.00 0.00 96 1017.5
20260902032640 24 76 0.0 0.0 0.00 0.00 0.00 96 1017.6
20260902031634 24 76 0.0 0.0 0.00 0.00 0.00 95 1017.6
20260902024427 25 76 0.0 0.0 0.00 0.00 0.00 95 1017.7
20260902023409 25 76 0.0 1.6 0.00 0.00 0.00 94 1017.7
20260902022402 25 76 0.0 0.0 0.00 0.00 0.00 94 1017.7
20260902021417 25 76 0.0 1.6 0.00 0.00 0.00 94 1017.7
20260902015259 25 76 0.0 1.6 0.00 0.00 0.00 93 1017.5
20260902014254 25 76 0.0 1.6 0.00 0.00 0.00 93 1017.4
20260902013236 25 76 0.0 1.6 0.00 0.00 0.00 92 1017.4